Vertical_Velocity
-1 -1 -1 -1 -1 -0 -0 -1 1 2 2 1 -0 -3 -4 -2 -4 -5 -5 -4 -7 -8 -7 -5 -2 1 3 5 5 4 1 -2 -2 -3 -3 -3 -4 -2 6 21 24 20 15 15 6 0 -2 1 4 3 0 0 -0 -0 1 5 3 2 1 3 4 4 5 5 4 2 1 -2 -3
0 -0 -0 -0 -1 -0 -1 -2 -1 0 1 1 2 -0 -3 -4 -5 -5 -4 -3 -5 -6 -7 -8 -7 -3 1 3 7 7 5 1 -1 -3 -3 -3 -5 -5 -0 12 22 26 24 21 13 4 -3 -3 -2 -1 -0 3 4 3 3 8 5 3 2 3 3 3 3 3 3 4 5 4 1
1 1 1 1 1 0 -0 -2 -2 -1 -1 -1 0 1 1 -2 -4 -5 -5 -5 -4 -3 -4 -8 -9 -8 -6 -4 4 8 9 5 1 -1 -3 -4 -4 -5 -4 -1 12 21 24 19 12 5 -0 -3 -4 -4 -2 0 3 3 3 5 3 3 3 2 2 3 2 1 2 4 6 7 4
1 1 1 1 1 1 -0 -1 -1 -1 -2 -2 -2 -1 -0 1 -0 -3 -5 -6 -4 -3 -4 -5 -7 -9 -10 -9 -1 6 11 9 4 0 -2 -3 -4 -4 -5 -5 1 10 18 19 13 7 2 2 -2 -3 -3 -2 -1 -1 -2 -0 2 4 4 2 2 2 1 -0 0 1 3 6 6
1 1 2 1 1 -0 -0 -1 -1 -2 -3 -2 -2 -3 -3 -0 1 0 -2 -3 -4 -5 -5 -4 -6 -9 -11 -10 -4 3 8 8 3 1 1 0 -2 -4 -5 -4 -3 1 7 15 14 10 6 4 1 -0 -0 -0 0 -1 -2 -1 4 6 5 2 1 1 2 2 2 3 3 4 6
-1 0 1 0 -0 -1 -2 -2 -2 -4 -4 -4 -3 -5 -5 -3 -1 -0 0 1 -3 -4 -5 -5 -7 -9 -9 -8 -5 0 5 6 1 1 2 3 1 -1 -3 -3 -4 -3 0 7 11 10 8 4 2 1 1 2 0 0 1 2 6 7 8 7 1 1 2 3 3 5 6 3 3
-2 -1 -1 -2 -2 -2 -4 -5 -5 -5 -6 -6 -6 -6 -6 -4 -3 -3 -2 1 2 -1 -4 -5 -6 -8 -9 -8 -5 -1 3 4 -0 -1 1 4 3 2 0 -2 -2 -2 -2 -1 5 8 8 6 3 1 0 3 2 3 4 8 7 6 7 8 5 3 2 -0 0 3 4 3 2
-3 -3 -3 -3 -4 -5 -6 -7 -7 -8 -9 -10 -9 -8 -7 -6 -6 -6 -4 0 3 1 -1 -3 -5 -7 -9 -8 -5 -1 2 4 -1 -3 -2 2 4 4 3 1 1 -0 -2 -3 1 4 6 8 6 4 2 4 6 7 8 10 8 7 6 5 5 5 5 1 -2 -2 -2 -2 -1
-5 -5 -5 -4 -6 -6 -7 -7 -8 -9 -10 -12 -11 -10 -9 -8 -8 -7 -6 -3 -1 2 3 2 -4 -6 -7 -7 -5 -2 2 5 1 -3 -5 -2 2 4 5 5 4 2 -0 0 0 0 2 7 7 5 3 5 6 6 6 6 6 7 7 7 7 8 9 9 6 3 0 -1 -2
-7 -7 -7 -7 -8 -8 -6 -7 -9 -9 -9 -11 -12 -12 -10 -10 -10 -9 -8 -7 -4 1 4 3 0 -3 -6 -9 -6 -2 2 4 2 -2 -5 -5 -1 3 5 6 5 4 2 3 1 0 0 4 5 4 2 3 3 2 2 2 2 3 6 8 9 9 11 14 17 17 15 14 11
-8 -8 -8 -9 -10 -9 -8 -7 -9 -8 -7 -8 -11 -11 -10 -11 -11 -10 -9 -8 -5 -3 -0 4 5 -0 -6 -10 -5 -1 3 4 3 1 -2 -5 -3 1 4 6 6 6 5 4 3 1 1 1 2 2 1 2 2 1 1 1 0 0 1 4 4 4 6 10 17 20 21 21 19
-8 -9 -10 -10 -10 -10 -9 -9 -9 -8 -7 -7 -9 -9 -9 -10 -11 -10 -9 -8 -8 -7 -4 4 5 -1 -7 -7 -3 -1 2 5 6 4 0 -3 -2 -0 3 5 6 7 6 5 4 3 2 1 1 2 2 2 3 2 1 1 2 1 -0 -0 -1 -2 -1 1 8 11 13 14 12
-9 -10 -11 -11 -11 -11 -11 -11 -10 -8 -7 -8 -8 -7 -8 -10 -10 -9 -8 -10 -10 -8 -4 1 1 -1 -4 -5 -3 -2 1 5 7 6 3 -1 -1 -0 1 3 5 6 7 6 7 6 5 2 3 3 3 2 3 2 1 2 3 2 0 -1 -2 -3 -3 -3 1 3 5 8 6
-9 -10 -11 -11 -12 -12 -12 -11 -11 -9 -8 -8 -8 -7 -7 -9 -9 -8 -8 -11 -11 -8 -5 -3 -1 -1 -2 -3 -4 -3 -0 4 7 7 5 0 -0 1 1 1 4 6 7 6 8 9 8 5 5 4 4 3 3 2 1 2 2 2 1 -0 -1 -3 -3 -3 -3 -1 1 2 2
-9 -9 -10 -10 -12 -12 -12 -11 -11 -10 -9 -10 -8 -7 -6 -9 -9 -7 -7 -10 -10 -8 -5 -5 -3 -2 -1 -3 -4 -3 -1 4 7 8 6 2 1 1 2 1 5 6 6 5 9 11 10 6 6 5 4 3 3 2 2 2 1 1 1 1 -1 -2 -3 -4 -4 -3 -2 -2 -1
-8 -8 -8 -9 -11 -11 -11 -11 -11 -10 -10 -10 -9 -7 -7 -9 -7 -6 -6 -9 -8 -6 -5 -6 -4 -2 -2 -4 -5 -3 -0 3 7 8 7 4 2 2 2 2 6 7 8 7 9 11 10 7 5 5 4 3 3 3 2 2 1 1 1 1 -0 -1 -3 -4 -4 -4 -4 -4 -2
-6 -6 -6 -8 -10 -10 -10 -10 -10 -10 -10 -10 -9 -7 -7 -7 -5 -4 -4 -5 -5 -5 -5 -6 -3 -2 -3 -5 -5 -3 -0 2 6 7 7 4 3 2 2 2 5 8 9 10 12 12 11 7 5 4 3 3 3 2 2 1 1 1 1 1 1 0 -1 -2 -2 -3 -4 -3 -3
-5 -5 -5 -6 -8 -8 -8 -9 -9 -10 -9 -9 -8 -7 -5 -4 -4 -4 -3 -2 -2 -3 -4 -3 -1 -1 -3 -6 -4 -3 -0 1 5 7 7 5 4 3 2 2 6 7 8 10 14 14 11 7 5 3 3 2 2 2 2 1 1 1 1 1 1 1 1 1 -0 -1 -2 -3 -3
-4 -4 -4 -5 -6 -7 -7 -8 -8 -9 -8 -7 -6 -5 -3 -2 -2 -3 -2 -2 -1 -1 -2 -2 -0 -0 -1 -3 -4 -3 -1 1 3 5 6 6 5 5 5 5 8 7 5 7 14 15 11 6 4 3 2 2 2 1 1 1 1 1 2 2 1 1 1 1 0 -0 -1 -2 -3
-3 -3 -4 -4 -5 -6 -7 -7 -8 -8 -7 -5 -4 -3 -2 -1 -1 -2 -2 -2 -1 -1 -1 -2 -1 -1 -1 -2 -3 -3 -2 1 3 4 6 7 7 7 7 8 10 9 6 5 10 11 9 4 3 2 2 1 1 1 1 1 1 2 2 2 1 1 1 -0 -0 -1 -1 -2 -2
-2 -3 -3 -3 -4 -5 -6 -7 -7 -7 -6 -4 -3 -2 -2 -1 -1 -1 -2 -2 -2 -2 -3 -3 -2 -2 -2 -2 -3 -3 -1 2 3 4 5 7 7 8 9 10 10 10 9 7 8 8 7 4 3 2 2 1 1 0 0 1 2 2 2 2 2 1 1 -0 -1 -1 -1 -0 -0
-1 -2 -2 -2 -3 -4 -5 -6 -7 -6 -5 -3 -2 -1 -1 -1 -1 -2 -2 -2 -2 -3 -3 -3 -2 -2 -2 -2 -3 -2 0 3 3 4 6 8 7 8 10 11 10 9 10 10 11 11 10 6 4 3 3 2 1 0 1 1 1 2 2 2 1 1 0 0 -0 -0 -0 0 0
-1 -1 -1 -2 -2 -3 -4 -6 -6 -5 -4 -2 -2 -1 -1 -2 -2 -2 -1 -1 -2 -2 -2 -2 -1 -1 -2 -2 -2 0 3 5 5 6 7 9 9 10 11 9 8 8 9 11 13 14 13 10 7 5 4 3 1 1 1 1 2 2 2 1 1 0 0 -0 -0 0 0 0 -0
-1 -1 -1 -1 -2 -3 -4 -5 -5 -4 -3 -2 -2 -2 -2 -2 -1 -1 0 0 -0 -1 -2 -2 -1 -0 -1 -2 -2 1 5 8 8 8 9 11 11 11 10 7 7 7 7 9 11 13 14 12 8 6 4 3 2 2 2 2 2 2 2 2 1 0 -0 -0 0 0 0 -0 -1
-1 -1 -1 -1 -2 -3 -4 -5 -4 -4 -3 -2 -2 -2 -1 -1 -0 0 1 2 1 0 -0 -1 -1 -1 -1 -1 -0 2 6 11 13 12 11 10 9 10 11 10 7 6 5 6 10 10 9 9 7 5 4 2 2 2 2 3 3 3 2 2 1 1 0 0 0 0 -0 -0 -1
-1 -1 -1 -1 -2 -3 -4 -4 -4 -4 -3 -2 -2 -1 -1 -1 0 1 2 2 2 1 0 -0 -1 -1 -1 -1 1 5 10 16 16 12 8 6 7 8 8 6 4 4 5 6 6 4 2 3 4 4 3 2 2 3 3 3 3 3 3 2 1 1 1 1 1 0 -0 -0 0
-1 -1 -2 -2 -3 -3 -4 -4 -4 -4 -3 -3 -2 -2 -1 0 1 2 3 2 2 1 1 0 -1 -2 -2 1 5 11 16 19 14 8 4 4 6 7 8 7 8 7 6 4 -1 -4 -4 -1 2 3 2 3 3 4 4 4 4 4 3 2 2 2 2 2 1 1 0 0 1
-1 -2 -3 -3 -3 -4 -4 -4 -4 -4 -4 -3 -2 -1 -0 1 2 2 2 2 2 2 1 -0 -3 -3 -1 5 10 15 19 22 18 15 14 15 18 19 18 16 12 7 1 -4 -8 -7 -3 3 5 5 5 4 5 5 5 5 4 3 2 2 2 2 2 2 2 1 1 1 2
-2 -3 -4 -4 -5 -5 -4 -3 -4 -4 -4 -3 -2 -0 1 2 2 2 2 2 3 3 1 -2 -4 -2 2 8 10 14 19 24 25 27 28 31 31 28 22 16 8 0 -5 -7 -1 8 17 23 19 15 10 8 6 5 5 4 3 2 2 2 2 2 2 2 2 2 1 1 1
-3 -4 -4 -5 -6 -5 -4 -4 -4 -4 -4 -3 -1 0 1 2 2 2 2 3 3 2 0 -2 -3 -0 4 6 7 12 18 23 24 24 24 23 22 20 18 16 10 5 6 15 29 38 42 40 31 22 15 10 7 5 4 3 2 2 2 2 2 2 2 2 2 2 1 -0 -1
-4 -5 -6 -6 -6 -5 -4 -4 -4 -4 -4 -3 -1 0 2 3 2 2 3 3 3 2 0 -1 -1 0 1 1 3 9 15 19 19 17 15 12 13 16 20 22 21 23 30 42 49 49 43 34 27 21 15 11 7 5 3 2 2 2 2 2 1 1 2 2 2 1 -0 -1 -1
-5 -6 -7 -7 -7 -6 -4 -3 -4 -4 -3 -2 -1 0 2 2 2 3 4 4 3 2 1 -0 0 -0 -2 -3 -1 4 11 17 18 17 14 11 13 19 25 29 31 35 40 45 42 35 28 22 20 18 14 10 7 5 3 2 2 2 1 1 1 1 1 1 0 -0 -1 -1 -0
-6 -7 -7 -7 -7 -6 -4 -3 -3 -3 -3 -2 -1 1 1 1 3 4 5 5 4 3 2 0 0 -2 -4 -7 -5 -0 6 15 19 19 17 14 15 20 26 30 34 37 39 38 31 23 18 16 17 16 13 10 7 5 4 2 1 1 1 0 1 1 1 0 -0 -0 -0 -0 -0
-6 -7 -7 -7 -7 -5 -4 -3 -3 -3 -3 -2 -0 1 2 2 4 6 7 6 5 4 3 1 -0 -3 -7 -9 -7 -2 5 14 20 22 20 17 16 17 21 26 33 37 37 33 25 20 17 15 14 12 10 8 6 4 3 2 1 0 0 0 1 1 0 0 -0 -0 -0 0 0
-6 -7 -7 -7 -6 -4 -3 -3 -3 -3 -2 -1 0 2 2 3 5 7 7 6 7 6 5 2 -1 -5 -8 -10 -6 -1 6 14 22 23 21 18 15 14 16 22 30 33 32 27 23 20 17 15 11 8 6 5 4 3 2 1 1 1 1 2 2 1 1 0 0 0 0 1 0
-5 -6 -7 -7 -5 -3 -3 -2 -3 -3 -2 -0 1 2 3 5 7 8 8 8 9 8 6 1 -2 -5 -8 -8 -5 -1 6 16 23 23 20 17 14 11 13 19 25 27 26 22 20 18 16 13 9 6 4 3 2 2 1 1 1 2 2 2 2 2 1 1 1 1 1 1 1
-4 -6 -7 -6 -4 -2 -2 -2 -2 -2 -1 0 1 2 4 7 9 10 9 9 10 9 5 0 -3 -6 -7 -7 -5 -2 5 16 22 21 17 14 12 11 13 18 21 20 18 15 15 14 12 10 7 5 3 2 1 1 1 1 1 2 2 2 2 2 2 2 2 2 2 2 2
-4 -5 -6 -5 -3 -2 -1 -2 -2 -1 -0 1 1 3 5 8 10 10 10 10 10 7 3 -1 -4 -6 -7 -7 -5 -2 4 14 17 15 12 11 11 12 13 16 16 15 13 12 13 12 10 7 5 3 2 2 2 2 2 2 2 2 2 2 2 2 2 3 3 3 3 3 3
-3 -4 -4 -4 -3 -2 -1 -1 -1 -0 -0 1 2 4 6 8 10 10 10 11 9 6 2 -1 -3 -5 -7 -7 -4 -1 4 12 13 11 9 9 11 13 14 14 13 12 13 15 16 15 12 9 6 5 4 4 4 4 4 3 3 3 3 3 3 3 3 3 4 4 4 4 4
-2 -3 -3 -3 -2 -1 -1 -0 -0 -0 0 0 2 5 6 8 9 11 12 12 10 6 3 1 -2 -4 -6 -6 -3 1 6 12 11 9 8 8 11 14 14 13 10 11 14 18 18 17 15 13 11 9 8 7 6 6 5 5 5 4 4 4 4 4 4 4 4 4 4 4 4
-2 -2 -2 -2 -1 -1 -1 -1 -0 -0 0 1 3 5 6 8 9 11 13 15 12 8 5 2 -1 -4 -6 -5 -1 4 10 14 12 10 9 9 13 15 15 12 10 11 13 15 15 15 15 14 13 11 10 8 7 6 5 5 5 4 4 4 4 4 5 5 4 4 4 4 4
Height
5590 5589 5589 5588 5588 5588 5587 5587 5587 5587 5587 5586 5586 5585 5585 5585 5585 5585 5585 5585 5585 5586 5586 5587 5588 5589 5590 5591 5592 5592 5592 5593 5593 5594 5594 5596 5597 5599 5601 5604 5604 5604 5604 5604 5603 5604 5605 5606 5606 5606 5607 5609 5610 5611 5612 5612 5613 5614 5615 5616 5616 5616 5617 5618 5618 5617 5617 5618 5619
5584 5583 5582 5581 5580 5580 5579 5579 5579 5579 5579 5579 5579 5578 5578 5578 5578 5578 5578 5579 5579 5578 5579 5579 5580 5581 5582 5584 5585 5586 5586 5586 5586 5587 5588 5589 5590 5592 5594 5597 5598 5598 5598 5598 5598 5598 5599 5600 5601 5602 5603 5605 5606 5606 5606 5607 5609 5610 5610 5610 5610 5611 5612 5613 5613 5613 5613 5613 5615
5577 5576 5575 5574 5573 5572 5571 5571 5571 5571 5571 5571 5571 5571 5571 5571 5570 5570 5571 5571 5571 5571 5571 5571 5572 5573 5575 5576 5578 5579 5580 5579 5580 5580 5581 5582 5583 5585 5587 5588 5591 5592 5592 5591 5592 5592 5593 5594 5595 5596 5598 5599 5601 5601 5601 5602 5604 5605 5605 5604 5605 5605 5607 5607 5608 5608 5608 5608 5610
5570 5569 5567 5566 5565 5565 5564 5563 5563 5563 5562 5562 5562 5563 5563 5564 5563 5563 5563 5563 5564 5564 5564 5564 5564 5565 5566 5568 5570 5572 5572 5572 5572 5573 5574 5575 5576 5578 5579 5581 5583 5585 5585 5585 5586 5587 5588 5588 5590 5591 5592 5593 5594 5595 5595 5597 5599 5599 5599 5599 5600 5600 5601 5602 5603 5603 5604 5604 5605
5562 5561 5560 5558 5557 5556 5555 5555 5554 5554 5553 5553 5553 5554 5555 5555 5555 5555 5556 5555 5555 5555 5555 5555 5555 5556 5557 5560 5562 5564 5565 5564 5564 5565 5567 5568 5570 5571 5572 5574 5575 5577 5579 5579 5580 5580 5581 5583 5584 5585 5586 5588 5589 5590 5591 5593 5594 5594 5593 5593 5595 5595 5597 5598 5598 5598 5599 5600 5600
5554 5553 5551 5550 5549 5548 5547 5546 5545 5545 5544 5544 5545 5545 5545 5545 5546 5547 5548 5548 5547 5547 5547 5547 5547 5547 5549 5551 5554 5555 5556 5556 5556 5557 5559 5561 5562 5564 5565 5567 5568 5569 5571 5572 5573 5574 5575 5577 5579 5580 5581 5582 5584 5585 5586 5588 5590 5590 5589 5589 5590 5591 5592 5594 5593 5593 5595 5595 5596
5546 5545 5543 5542 5540 5539 5538 5537 5536 5535 5535 5535 5535 5536 5536 5535 5536 5537 5538 5539 5539 5539 5538 5538 5538 5539 5540 5542 5544 5546 5547 5548 5548 5549 5551 5553 5555 5556 5558 5560 5561 5562 5564 5565 5567 5568 5569 5571 5573 5574 5575 5577 5579 5581 5582 5583 5584 5584 5585 5585 5585 5586 5589 5589 5589 5589 5590 5590 5591
5537 5536 5535 5533 5532 5530 5530 5528 5527 5526 5526 5525 5525 5526 5526 5526 5526 5527 5528 5528 5530 5530 5529 5529 5529 5530 5530 5532 5535 5537 5539 5540 5540 5540 5542 5545 5547 5549 5551 5552 5554 5555 5556 5558 5560 5561 5563 5564 5566 5568 5569 5571 5574 5575 5576 5577 5578 5579 5579 5580 5581 5582 5584 5584 5584 5585 5585 5585 5586
5528 5527 5526 5525 5524 5522 5521 5520 5519 5518 5517 5516 5516 5516 5516 5516 5516 5516 5517 5518 5519 5519 5519 5520 5520 5520 5520 5523 5525 5527 5528 5530 5530 5531 5533 5536 5539 5541 5543 5545 5547 5548 5550 5551 5553 5555 5556 5558 5559 5561 5563 5565 5567 5568 5570 5571 5573 5574 5574 5576 5577 5578 5579 5579 5580 5581 5581 5581 5582
5520 5518 5517 5516 5515 5514 5512 5511 5510 5509 5508 5507 5506 5506 5506 5505 5505 5505 5506 5506 5507 5508 5509 5510 5509 5509 5510 5512 5515 5518 5520 5521 5522 5522 5524 5527 5530 5533 5535 5538 5540 5542 5543 5544 5546 5548 5550 5551 5553 5554 5556 5558 5560 5562 5563 5565 5566 5568 5569 5570 5571 5573 5574 5575 5577 5578 5578 5578 5579
5510 5509 5508 5507 5505 5504 5503 5502 5501 5500 5499 5498 5497 5496 5496 5495 5495 5495 5495 5495 5495 5497 5498 5499 5498 5498 5499 5502 5505 5508 5511 5513 5514 5514 5515 5518 5521 5524 5527 5530 5532 5535 5536 5538 5539 5541 5543 5545 5546 5548 5550 5552 5555 5556 5557 5559 5560 5562 5563 5564 5565 5567 5569 5571 5573 5574 5575 5574 5575
5502 5500 5498 5497 5495 5494 5493 5492 5491 5490 5489 5489 5488 5487 5486 5485 5485 5485 5484 5484 5485 5485 5486 5487 5487 5488 5489 5491 5494 5497 5500 5503 5504 5505 5506 5509 5512 5515 5519 5521 5524 5527 5530 5531 5533 5535 5536 5538 5540 5542 5545 5546 5548 5550 5552 5553 5555 5556 5557 5558 5560 5561 5563 5565 5567 5568 5569 5569 5570
5493 5491 5489 5487 5485 5484 5483 5482 5481 5480 5480 5479 5478 5477 5476 5475 5475 5474 5474 5474 5474 5475 5475 5476 5477 5477 5478 5480 5483 5486 5490 5492 5495 5496 5497 5500 5503 5507 5510 5513 5516 5520 5523 5525 5526 5528 5530 5532 5534 5536 5539 5540 5542 5544 5546 5548 5550 5551 5552 5553 5555 5556 5558 5559 5560 5562 5563 5564 5565
5484 5482 5480 5478 5476 5475 5474 5473 5472 5471 5470 5470 5469 5468 5466 5466 5465 5464 5464 5464 5464 5464 5465 5465 5466 5466 5467 5469 5472 5475 5479 5483 5486 5487 5489 5491 5494 5498 5502 5506 5509 5512 5515 5518 5520 5522 5524 5526 5528 5530 5533 5535 5536 5538 5540 5542 5544 5545 5547 5548 5549 5551 5552 5554 5555 5556 5558 5559 5560
5475 5473 5471 5469 5467 5466 5465 5464 5462 5461 5461 5460 5460 5459 5458 5457 5456 5455 5455 5454 5454 5454 5455 5455 5456 5456 5457 5458 5460 5464 5468 5472 5476 5478 5480 5482 5485 5490 5494 5499 5502 5505 5508 5511 5514 5515 5517 5520 5522 5525 5527 5529 5531 5533 5535 5537 5539 5540 5542 5544 5545 5546 5548 5549 5551 5552 5553 5555 5555
5466 5464 5462 5460 5459 5457 5456 5455 5454 5453 5452 5452 5451 5450 5449 5448 5447 5446 5446 5445 5445 5445 5445 5446 5446 5446 5447 5448 5450 5453 5457 5462 5465 5468 5470 5473 5477 5481 5486 5492 5495 5499 5502 5505 5507 5509 5511 5513 5516 5519 5521 5523 5525 5527 5530 5532 5534 5536 5538 5539 5540 5542 5543 5545 5546 5548 5549 5550 5551
5459 5456 5454 5453 5451 5450 5449 5447 5446 5445 5445 5444 5443 5443 5442 5441 5440 5439 5439 5438 5438 5437 5438 5438 5438 5438 5438 5439 5440 5443 5447 5451 5455 5458 5461 5465 5469 5474 5479 5484 5488 5492 5495 5498 5501 5502 5505 5507 5510 5513 5515 5518 5520 5522 5524 5526 5529 5531 5533 5535 5536 5538 5539 5540 5542 5543 5545 5546 5547
5451 5449 5447 5446 5444 5443 5441 5440 5440 5439 5438 5437 5437 5436 5435 5435 5434 5433 5433 5432 5432 5431 5431 5431 5431 5431 5430 5430 5432 5434 5438 5441 5445 5449 5452 5456 5461 5467 5472 5477 5481 5485 5489 5492 5495 5496 5498 5501 5504 5507 5510 5512 5515 5517 5519 5521 5524 5526 5528 5530 5532 5534 5535 5536 5538 5539 5540 5542 5543
5444 5442 5441 5439 5438 5436 5435 5434 5433 5433 5432 5431 5430 5430 5429 5429 5428 5428 5427 5427 5427 5426 5426 5425 5425 5425 5424 5424 5424 5426 5429 5432 5435 5439 5444 5449 5454 5460 5465 5470 5475 5479 5483 5486 5489 5490 5492 5495 5498 5501 5504 5507 5509 5512 5514 5517 5519 5521 5523 5525 5527 5529 5531 5532 5534 5535 5536 5537 5539
5438 5436 5435 5433 5432 5430 5429 5428 5428 5427 5426 5425 5425 5425 5424 5424 5423 5423 5423 5422 5422 5421 5421 5420 5420 5419 5419 5418 5418 5419 5420 5423 5427 5431 5436 5441 5448 5454 5459 5464 5468 5472 5476 5479 5482 5485 5487 5490 5493 5496 5499 5502 5505 5507 5510 5512 5514 5516 5518 5520 5522 5524 5526 5528 5529 5531 5532 5533 5535
5432 5430 5429 5427 5426 5425 5424 5423 5422 5421 5421 5420 5420 5420 5419 5419 5419 5419 5418 5418 5417 5417 5416 5415 5415 5414 5413 5412 5412 5413 5414 5416 5420 5424 5429 5435 5440 5446 5452 5457 5461 5465 5470 5473 5476 5479 5482 5485 5488 5491 5494 5497 5500 5502 5505 5507 5510 5512 5514 5515 5518 5520 5521 5523 5525 5527 5528 5530 5531
5426 5425 5423 5422 5421 5420 5419 5418 5417 5416 5416 5415 5415 5415 5415 5415 5415 5414 5414 5413 5412 5412 5411 5410 5409 5408 5408 5407 5407 5407 5408 5410 5414 5418 5423 5428 5434 5440 5445 5450 5455 5460 5464 5468 5471 5474 5477 5480 5483 5486 5489 5492 5495 5498 5500 5503 5505 5507 5509 5511 5513 5515 5517 5519 5520 5522 5524 5525 5526
5420 5419 5418 5417 5415 5415 5414 5413 5412 5412 5411 5411 5410 5410 5410 5410 5410 5410 5409 5409 5408 5407 5406 5405 5404 5403 5402 5401 5400 5401 5403 5407 5410 5414 5418 5424 5429 5435 5440 5444 5449 5454 5458 5462 5465 5469 5472 5475 5479 5482 5485 5487 5490 5493 5496 5498 5500 5503 5505 5506 5509 5510 5512 5514 5516 5518 5520 5521 5522
5415 5414 5413 5412 5411 5410 5409 5408 5408 5407 5406 5406 5406 5406 5406 5406 5406 5405 5405 5405 5403 5402 5401 5400 5399 5398 5397 5395 5395 5395 5398 5403 5406 5410 5415 5420 5425 5430 5435 5440 5444 5449 5453 5456 5460 5463 5466 5470 5474 5477 5480 5483 5485 5488 5491 5494 5496 5498 5500 5502 5504 5506 5508 5510 5512 5514 5515 5516 5518
5410 5409 5408 5407 5406 5405 5404 5404 5403 5402 5402 5402 5402 5401 5401 5402 5402 5401 5401 5400 5399 5398 5397 5395 5395 5394 5392 5391 5390 5391 5394 5399 5403 5408 5413 5417 5421 5426 5431 5435 5440 5444 5448 5452 5455 5458 5462 5465 5469 5472 5475 5478 5481 5484 5486 5489 5491 5494 5496 5498 5500 5502 5504 5506 5508 5509 5511 5513 5514
5405 5404 5403 5402 5401 5400 5400 5399 5399 5398 5398 5397 5397 5397 5397 5397 5397 5397 5397 5396 5395 5394 5393 5392 5390 5389 5388 5388 5388 5390 5393 5397 5402 5407 5411 5414 5419 5423 5428 5432 5436 5441 5445 5449 5451 5454 5458 5462 5465 5468 5471 5474 5476 5479 5482 5485 5487 5489 5492 5494 5496 5498 5500 5502 5504 5505 5507 5509 5510
5400 5399 5398 5397 5397 5396 5395 5395 5394 5394 5393 5393 5393 5393 5393 5393 5393 5393 5393 5392 5391 5390 5389 5388 5387 5386 5385 5385 5386 5389 5392 5397 5402 5406 5410 5413 5417 5421 5426 5430 5434 5438 5442 5445 5448 5451 5455 5459 5461 5464 5466 5470 5472 5475 5478 5480 5483 5485 5488 5490 5492 5494 5496 5498 5500 5501 5503 5505 5506
5394 5394 5393 5392 5392 5391 5391 5390 5390 5389 5389 5389 5389 5390 5390 5390 5390 5389 5389 5388 5387 5386 5386 5385 5384 5383 5383 5383 5384 5387 5391 5397 5402 5406 5409 5412 5416 5420 5425 5428 5431 5435 5438 5441 5445 5449 5453 5456 5458 5460 5462 5465 5468 5471 5474 5476 5479 5481 5484 5486 5488 5490 5492 5494 5496 5498 5499 5501 5502
5389 5388 5388 5387 5387 5387 5386 5386 5385 5385 5385 5385 5385 5385 5386 5386 5386 5386 5385 5385 5384 5383 5382 5382 5381 5381 5380 5380 5381 5385 5389 5394 5399 5403 5406 5410 5414 5418 5421 5425 5428 5432 5435 5438 5442 5446 5450 5453 5455 5456 5458 5461 5464 5466 5469 5472 5475 5477 5480 5482 5484 5486 5488 5490 5492 5494 5495 5497 5498
5384 5383 5383 5382 5382 5382 5382 5381 5381 5381 5381 5381 5381 5382 5382 5382 5382 5382 5382 5381 5380 5380 5380 5379 5379 5379 5378 5378 5379 5382 5386 5391 5395 5399 5402 5405 5409 5413 5417 5421 5425 5429 5432 5435 5438 5443 5447 5450 5451 5452 5454 5457 5460 5463 5465 5468 5471 5473 5476 5478 5480 5482 5485 5486 5488 5490 5491 5493 5494
5379 5379 5378 5378 5378 5378 5377 5377 5377 5377 5377 5378 5378 5378 5379 5379 5379 5379 5378 5378 5377 5377 5377 5377 5376 5376 5376 5376 5378 5380 5384 5388 5392 5395 5398 5400 5404 5408 5412 5417 5421 5425 5427 5431 5435 5440 5444 5446 5447 5449 5451 5454 5456 5459 5462 5465 5467 5470 5472 5474 5476 5479 5481 5482 5484 5486 5487 5489 5490
5374 5374 5373 5373 5373 5373 5373 5373 5374 5374 5374 5374 5375 5375 5375 5375 5375 5375 5375 5375 5374 5374 5374 5374 5374 5374 5374 5375 5376 5378 5381 5386 5390 5393 5395 5397 5400 5404 5409 5413 5417 5420 5424 5429 5435 5438 5441 5442 5444 5446 5449 5451 5454 5456 5459 5461 5464 5466 5468 5470 5473 5475 5476 5478 5480 5482 5484 5485 5487
5370 5369 5369 5368 5369 5369 5369 5370 5370 5370 5371 5371 5371 5372 5372 5372 5372 5372 5372 5372 5372 5372 5371 5371 5371 5372 5373 5374 5375 5376 5379 5384 5388 5391 5394 5395 5398 5401 5405 5410 5415 5419 5424 5429 5433 5435 5437 5439 5441 5444 5446 5449 5451 5453 5456 5458 5460 5462 5465 5467 5469 5471 5473 5475 5476 5478 5480 5481 5483
5364 5364 5364 5364 5365 5365 5365 5366 5367 5367 5367 5368 5368 5369 5369 5369 5369 5369 5369 5369 5369 5369 5369 5369 5369 5370 5371 5373 5374 5376 5378 5382 5386 5390 5393 5395 5397 5400 5403 5408 5414 5419 5424 5427 5430 5432 5434 5436 5439 5442 5444 5446 5448 5450 5452 5455 5457 5459 5461 5463 5465 5467 5469 5471 5472 5474 5476 5478 5479
5359 5359 5360 5360 5361 5361 5362 5363 5364 5364 5365 5365 5365 5365 5366 5366 5366 5366 5366 5366 5367 5367 5367 5367 5368 5369 5370 5372 5373 5375 5377 5381 5386 5389 5391 5394 5395 5398 5401 5406 5413 5418 5422 5425 5426 5429 5431 5434 5437 5439 5441 5442 5444 5446 5449 5451 5454 5456 5458 5460 5462 5464 5465 5467 5469 5471 5472 5474 5475
5355 5355 5355 5356 5357 5358 5359 5360 5360 5361 5362 5362 5362 5363 5363 5363 5364 5364 5364 5365 5365 5366 5366 5366 5366 5367 5369 5371 5372 5374 5377 5381 5385 5388 5390 5392 5394 5396 5400 5406 5412 5417 5420 5421 5424 5426 5429 5431 5434 5435 5437 5439 5441 5443 5445 5448 5450 5453 5455 5457 5459 5460 5462 5464 5465 5467 5469 5470 5472
5351 5351 5352 5353 5354 5355 5356 5357 5358 5359 5359 5359 5360 5360 5360 5361 5361 5362 5362 5363 5364 5364 5364 5364 5365 5366 5367 5369 5371 5373 5376 5380 5384 5387 5388 5390 5393 5396 5400 5405 5411 5415 5417 5419 5421 5424 5426 5428 5430 5431 5433 5435 5438 5440 5443 5445 5447 5450 5452 5454 5455 5457 5459 5461 5462 5464 5466 5467 5469
5348 5349 5350 5350 5352 5353 5354 5355 5356 5356 5356 5357 5357 5358 5358 5359 5359 5360 5360 5362 5362 5362 5362 5362 5363 5365 5366 5368 5370 5373 5376 5380 5383 5385 5386 5388 5392 5396 5400 5405 5409 5412 5415 5416 5419 5421 5422 5424 5425 5427 5430 5432 5435 5438 5440 5442 5445 5447 5449 5451 5453 5455 5456 5458 5460 5461 5463 5465 5466
5346 5346 5347 5348 5350 5351 5352 5353 5354 5354 5354 5355 5355 5356 5356 5357 5357 5358 5359 5360 5361 5361 5361 5361 5362 5364 5366 5368 5370 5373 5375 5379 5382 5383 5385 5387 5391 5395 5400 5404 5408 5410 5412 5414 5416 5418 5419 5420 5422 5425 5427 5430 5433 5435 5438 5440 5442 5444 5446 5448 5450 5452 5454 5455 5457 5459 5460 5462 5463
5344 5345 5345 5347 5348 5349 5350 5351 5351 5352 5352 5353 5353 5354 5354 5355 5355 5356 5358 5359 5360 5360 5360 5360 5362 5364 5366 5368 5370 5372 5375 5378 5380 5382 5384 5386 5390 5395 5399 5404 5406 5409 5410 5412 5414 5415 5416 5418 5421 5423 5425 5428 5430 5433 5435 5438 5440 5442 5444 5446 5448 5450 5451 5453 5455 5456 5458 5459 5461
5342 5343 5344 5345 5346 5347 5348 5349 5350 5350 5350 5351 5351 5352 5352 5353 5354 5355 5356 5358 5359 5359 5360 5360 5362 5365 5367 5368 5370 5372 5375 5378 5379 5380 5382 5385 5389 5393 5398 5402 5405 5407 5409 5410 5412 5414 5416 5418 5420 5422 5424 5426 5428 5431 5433 5435 5438 5440 5442 5444 5446 5448 5450 5451 5453 5454 5456 5457 5459